Regional Weather Roundup
Issued by NWS

Current Version | Previous Version | Text Only | Print | Product List | Glossary On
Versions: 1 2 3 4 5 6 7 8 9 10 11 12 13 14 15 16 17 18 19 20 21 22 23 24 25 26 27 28 29 30 31 32 33 34 35 36 37 38 39 40 41 42 43 44 45 46 47 48 49 50
000
ASUS44 KFWD 221515
RWRTX
NORTH TEXAS HOURLY WEATHER ROUNDUP
NATIONAL WEATHER SERVICE FORT WORTH TX
1000 AM CDT FRI AUG 22 2014

NOTE: "FAIR" INDICATES FEW OR NO CLOUDS BELOW 12,000 FEET WITH NO
SIGNIFICANT WEATHER AND/OR OBSTRUCTIONS TO VISIBILITY.

TXZ118-119-221600-
DALLAS/FORT WORTH METROPLEX

CITY           SKY/WX    TMP DP  RH WIND       PRES   REMARKS
DFW AIRPORT    SUNNY     86  72  62 S20G26    30.04S HX  92
DALLAS LOVE    SUNNY     84  72  67 SW13G22   30.05S
FTW MEACHAM    SUNNY     86  72  62 S21       30.04F HX  92
DAL-EXECUTIVE  SUNNY     86  71  60 SW9G21    30.05F HX  91
FTW-ALLIANCE   SUNNY     86  70  58 S14G23    30.03S HX  90
FTW-NAS-JRB    SUNNY     89  69  51 S20       30.09S HX  93
FTW-SPINKS     SUNNY     84  72  65 S9G18     30.07S
ARLINGTON      SUNNY     85  71  63 S12G22    30.05F HX  90
ADDISON        SUNNY     84  72  65 S12G20    30.06S
LANCASTER      SUNNY     84  70  62 SW12G17   30.07S
$$

TXZ091>094-102>105-117-120-121-131>134-221600-
NORTH CENTRAL TEXAS

CITY           SKY/WX    TMP DP  RH WIND       PRES   REMARKS
SHRMAN/DENISON SUNNY     85  72  64 SW17      30.05F HX  91
GAINESVILLE    SUNNY     83  72  67 S15G24    30.06F
BOWIE          SUNNY     85  71  62 S15       30.04F
BRIDGEPORT     SUNNY     85  66  54 SW12G22   30.06S
DECATUR        SUNNY     83  69  61 S14       30.06S
DENTON         SUNNY     85  70  60 S21G26    30.04F
MCKINNEY       SUNNY     84  72  67 SW12      30.05S
GREENVILLE       N/A     86  70  58 SW14G21   30.07S HX  90
ROCKWALL       SUNNY     84  74  71 SW15G21   30.05S HX  90
TERRELL        SUNNY     86  74  67 SW14      30.07S HX  94
WAXAHACHIE     SUNNY     84  69  61 SW15G22   30.08S
CLEBURNE       SUNNY     82  73  74 S15       30.08F
GRANBURY       SUNNY     87  68  53 S13       30.07S HX  91
$$

TXZ083>090-098>101-113>116-127>130-139>142-154-155-221600-
WESTERN NORTH TEXAS

CITY           SKY/WX    TMP DP  RH WIND       PRES   REMARKS
WICHITA FALLS  SUNNY     88  70  55 S20G26    30.00F HX  93
WF-KICKAPOO    SUNNY     88  67  49 SW13G23   30.03S HX  90
VERNON         SUNNY     89  66  46 S18       30.01F HX  91
ABILENE        SUNNY     84  64  50 S16G26    30.06F
ABILENE-DYESS  SUNNY     84  65  53 S15G26    30.05S
BRECKENRIDGE   SUNNY     87  62  43 SW18G29   30.05S HAZE
GRAHAM         SUNNY     86  65  49 S16       30.03S
MINERAL WELLS  SUNNY     85  70  60 MISG      30.04F
STEPHENVILLE   SUNNY     83  67  58 S14G20    30.10F
COMANCHE       SUNNY     83  66  56 S12G18    30.08F
BROWNWOOD      SUNNY     82  66  57 S14       30.09S
COLEMAN        SUNNY     80  66  61 S16       30.09S
BRADY          SUNNY     81  64  57 S16       30.09S
$$

TXZ143>147-156>162-174-175-221600-
CENTRAL TEXAS

CITY           SKY/WX    TMP DP  RH WIND       PRES   REMARKS
WACO           SUNNY     86  72  62 S15       30.07S HX  92
WACO-TSTC      MOSUNNY   86  73  66 SW10      30.07S HX  93
WACO-MCGREGOR  SUNNY     86  70  58 S15G21    30.08F HX  90
HILLSBORO      SUNNY     85  71  62 S13G21    30.08S HX  90
CORSICANA      SUNNY     86  72  62 SW13      30.09R HX  92
MEXIA          MOSUNNY   85  74  70 SW14      30.08R HX  92
HEARNE           N/A     87  75  68 S9        30.08S HX  95
CAMERON        MOSUNNY   87  74  66 SW10G20   30.07S HX  95
TEMPLE         MOSUNNY   84  70  61 S14G20    30.07S
KILLEEN        MOSUNNY   84  72  65 S15G21    30.08S
KILLEEN-SKYLRK SUNNY     86  70  58 S10G18    30.08S HX  90
FORT HOOD      SUNNY     87  70  56 S13G20    30.08S HX  92
GATESVILLE     SUNNY     84  70  61 SW15      30.10S
HAMILTON       SUNNY     85  67  54 S16       30.10S
LAMPASAS       SUNNY     83  70  64 S10G18    30.08S
$$

TXZ095>097-106>112-122>126-135>138-148>153-164>167-221600-
EAST TEXAS

CITY           SKY/WX    TMP DP  RH WIND       PRES   REMARKS
PARIS          SUNNY     82  70  65 SW17G24   30.07S
SULPHUR SPRNGS SUNNY     85  72  65 SW16      30.09S HX  91
CLARKSVILLE    MOSUNNY   84  73  68 SW7       30.07S HX  90
MOUNT PLEASANT MOSUNNY   84  73  69 SW9       30.09F HX  90
GILMER         SUNNY     82  75  78 S10       30.10S
MINEOLA        MOSUNNY   84  75  74 SW8       30.09S HX  92
TYLER          MOSUNNY   83  73  72 SW12G20   30.09R
LONGVIEW       MOSUNNY   84  73  69 SW9       30.09S HX  90
MARSHALL       MOSUNNY   86  76  71 SW8       30.11S HX  96
ATHENS         MOSUNNY   82  73  74 SW8       30.08R
PALESTINE      PTSUNNY   83  76  79 SW12      30.10S HX  90
JACKSONVILLE   MOSUNNY   82  75  79 SW7       30.12S
HENDERSON      PTSUNNY   83  74  73 SW5       30.11S
NACOGDOCHES    PTSUNNY   81  75  83 SW8       30.11S
LUFKIN         MOSUNNY   85  76  74 SW8       30.11R HX  94
$$

SUPPLEMENTAL OBSERVATIONS (CENTRAL)

CITY           SKY/WX    TMP DP  RH WIND       PRES   REMARKS
LAKE TEXOMA      N/A     82  70  65 SW18        N/A
CADDO GRASSLND   N/A     84  72  65 SW8G17      N/A
PAT MAYSE LAKE   N/A     82  72  69 S15         N/A
GREENVILLE       N/A     86  73  66 SW13        N/A  HX  93
CEDAR HILL       N/A     86  72  62 S9G17       N/A  HX  92
ATHENS           N/A     88  75  66 SW5G13      N/A  HX  97
PALESTINE        N/A     86  75  70 SW2         N/A  HX  95
MCGREGOR         N/A     88  72  58 S9          N/A  HX  94
TEMPLE           N/A     88  72  58 S10G20      N/A  HX  94
$$

SUPPLEMENTAL OBSERVATIONS (WEST)

CITY           SKY/WX    TMP DP  RH WIND       PRES   REMARKS
MILLERS CREEK    N/A     88  72  58 SW17G25     N/A  HX  94
POSSUM KINGDOM   N/A     88  63  42 SW13G22     N/A
LBJ GRASSLAND    N/A     86  70  58 S10         N/A  HX  90
GRANBURY         N/A     88  68  51 S15G22      N/A  HX  91
HAMBY            N/A     84  63  48 S22         N/A
IVIE RESERVOIR   N/A     84  63  48 S13         N/A
COLORADO BEND    N/A     84  66  54 S13         N/A
$$

SUPPLEMENTAL OBSERVATIONS (EAST)

CITY           SKY/WX    TMP DP  RH WIND       PRES   REMARKS
CLARKSVILLE      N/A     88  75  66 SW5         N/A  HX  97
TEXARKANA        N/A     84  73  70 S6          N/A  HX  91
LINDEN           N/A     86  73  66 SW3         N/A  HX  93
CADDO LAKE       N/A     84  72  65 SW3         N/A
GILMER           N/A     84  73  70 SW9         N/A  HX  91
HENDERSON        N/A     84  73  70 SW10        N/A  HX  91
S SABINE NF      N/A     88  81  79 S3          N/A  HX 105
$$

SUPPLEMENTAL OBSERVATIONS ARE A COLLECTION OF AUTOMATED INSTRUMENTS
THAT ARE MAINTAINED BY A VARIETY OF FEDERAL AND STATE AGENCIES.
CERTAIN ELEMENTS...SUCH AS HUMIDITY VALUES AND SUSTAINED WIND
SPEEDS...MAY BE APPROXIMATED.




USA.gov is the U.S. government's official web portal to all federal, state and local government web resources and services.